Voltar ao catálogo

STARLINK-35641

AtivoComunicaçõesVLEO
NORAD 66167·PAYLOAD·🇺🇸 United States

Lançado Oct 25, 2025 de Cape Canaveral Space Force Station

Loading…

Próximas Passagens (próximas 24 horas)

TLE

AtualizadoSource: CelesTrak SupGP

Época: Sep 14, 2026, 15:10 UTC

1 66167C 25240X   26257.63243056 -.00028777  00000+0 -85045-3 0  2574
2 66167  53.1567 261.1931 0001151  89.1919 235.8412 15.34396778    12

Acompanhe STARLINK-35641 em tempo real com AllMySat

Download on the App Store